1486177201.09,25174,9.69,72696.5,-5.99,-20.19,-20.39,0,*52
1486177202.32,25175,9.69,72698.5,-5.99,-20.09,-20.39,0,*52
1486177203.57,25176,9.63,72696.5,-5.99,-20.19,-20.39,0,*50
1486177204.83,25177,9.63,72696.8,-5.99,-20.19,-20.39,0,*51
1486177206.06,25178,9.69,72700.3,-5.99,-20.25,-20.39,0,*51
1486177207.34,25179,9.63,72698.5,-5.99,-20.19,-20.35,0,*53
1486177208.57,25180,9.69,72696.5,-5.99,-20.09,-20.39,0,*58
1486177209.84,25181,9.69,72696.5,-5.99,-20.19,-20.35,0,*54
1486177211.1,25182,9.63,72694.0,-5.99,-20.19,-20.39,0,*5B
1486177212.37,25183,9.69,72696.8,-5.99,-20.19,-20.35,0,*56
1486177213.63,25184,9.69,72698.8,-5.99,-20.35,-20.39,0,*53
1486177214.91,25185,9.69,72696.0,-5.99,-20.19,-20.49,0,*5B
1486177216.19,25186,9.69,72696.8,-5.99,-20.19,-20.49,0,*58
1486177217.44,25187,9.63,72694.0,-5.97,-20.19,-20.35,0,*5C
1486177218.67,25188,9.69,72698.5,-5.99,-20.09,-20.39,0,*50
1486177219.89,25189,9.69,72698.8,-5.97,-20.15,-20.29,0,*53
1486177221.14,25190,9.63,72694.0,-6.01,-20.19,-20.35,0,*56
1486177222.37,25191,9.69,72700.3,-5.99,-20.25,-20.39,0,*56
1486177223.63,25192,9.69,72698.5,-5.99,-20.35,-20.39,0,*54
1486177224.91,25193,9.69,72696.3,-5.99,-20.35,-20.49,0,*52
1486177226.16,25194,9.69,72698.5,-6.01,-20.35,-20.49,0,*57
1486177227.37,25195,9.63,72692.8,-6.01,-20.25,-20.39,0,*50
1486177228.6,25196,9.69,72696.5,-5.99,-20.09,-20.39,0,*5F
1486177229.81,25197,9.69,72698.8,-6.01,-20.25,-20.39,0,*52
1486177231.08,25198,9.63,72692.3,-5.99,-20.35,-20.35,0,*52
1486177232.34,25199,9.63,72692.0,-5.99,-20.35,-20.39,0,*5F
1486177233.61,25200,9.69,72702.3,-5.99,-20.35,-20.49,0,*5B
1486177234.85,25201,9.69,72698.0,-5.99,-20.25,-20.39,0,*5C
1486177236.08,25202,9.69,72694.0,-6.01,-20.35,-20.39,0,*5C
1486177237.33,25203,9.69,72696.3,-5.99,-20.35,-20.39,0,*5F
1486177238.59,25204,9.63,72694.8,-5.99,-20.35,-20.39,0,*58
1486177239.82,25205,9.63,72694.0,-5.97,-20.25,-20.49,0,*51
1486177241.05,25206,9.63,72692.0,-6.01,-20.35,-20.39,0,*58
1486177242.32,25207,9.63,72692.3,-5.99,-20.35,-20.35,0,*57
1486177243.55,25208,9.69,72696.0,-6.01,-20.35,-20.39,0,*56
1486177244.8,25209,9.69,72698.3,-6.01,-20.35,-20.35,0,*5B
1486177246.05,25210,9.69,72696.3,-5.99,-20.25,-20.35,0,*50
1486177247.3,25211,9.69,72698.0,-6.01,-20.35,-20.35,0,*52
1486177248.51,25212,9.69,72698.0,-6.01,-20.39,-20.39,0,*51
1486177249.74,25213,9.69,72698.0,-6.01,-20.39,-20.35,0,*5C
1486177250.95,25214,9.69,72696.3,-6.01,-20.39,-20.39,0,*57
1486177252.2,25215,9.69,72694.8,-6.01,-20.35,-20.35,0,*56
1486177253.47,25216,9.69,72694.0,-5.99,-20.35,-20.35,0,*57
1486177254.73,25217,9.69,72698.8,-5.99,-20.35,-20.39,0,*5A
1486177255.96,25218,9.69,72696.0,-6.01,-20.35,-20.39,0,*57
1486177257.2,25219,9.69,72696.5,-6.01,-20.49,-20.39,0,*5D
1486177258.43,25220,9.69,72696.0,-6.01,-20.35,-20.39,0,*5C
1486177259.64,25221,9.63,72692.5,-6.01,-20.39,-20.39,0,*51
1486177260.9,25222,9.69,72698.3,-5.99,-20.39,-20.35,0,*5C
1486177262.11,25223,9.69,72694.5,-6.01,-20.39,-20.39,0,*53
1486177263.35,25224,9.69,72696.5,-5.99,-20.39,-20.39,0,*56
1486177264.6,25225,9.69,72694.5,-5.99,-20.39,-20.35,0,*5B
1486177265.84,25226,9.69,72696.5,-6.01,-20.49,-20.39,0,*51
1486177267.07,25227,9.69,72696.0,-6.01,-20.39,-20.35,0,*5B
1486177268.32,25228,9.69,72696.0,-5.99,-20.39,-20.35,0,*56
1486177269.54,25229,9.63,72694.0,-6.01,-20.39,-20.39,0,*59
1486177270.77,25230,9.69,72696.3,-6.01,-20.49,-20.39,0,*56
1486177272.0,25231,9.69,72696.3,-6.01,-20.35,-20.25,0,*51
1486177273.26,25232,9.69,72698.0,-5.99,-20.35,-20.39,0,*5D
1486177274.49,25233,9.69,72696.0,-5.99,-20.39,-20.39,0,*50
1486177275.71,25234,9.63,72694.0,-6.01,-20.39,-20.39,0,*55
1486177276.94,25235,9.69,72696.0,-6.01,-20.39,-20.35,0,*58
1486177278.19,25236,9.69,72696.5,-6.01,-20.49,-20.35,0,*5C
1486177279.43,25237,9.69,72696.3,-6.01,-20.49,-20.39,0,*51
1486177280.66,25238,9.69,72696.8,-6.01,-20.39,-20.35,0,*55
1486177281.92,25239,9.69,72696.5,-6.01,-20.49,-20.19,0,*5D
1486177283.17,25240,9.69,72696.5,-5.99,-20.39,-20.35,0,*58
1486177284.4,25241,9.63,72694.0,-6.01,-20.39,-20.35,0,*5B
1486177285.61,25242,9.69,72694.3,-6.01,-20.39,-20.39,0,*54
1486177286.85,25243,9.63,72694.3,-5.99,-20.39,-20.39,0,*57
1486177288.11,25244,9.69,72696.8,-6.01,-20.53,-20.35,0,*52
1486177289.36,25245,9.69,72696.0,-6.01,-20.53,-20.35,0,*53
1486177290.6,25246,9.69,72696.3,-6.01,-20.53,-20.39,0,*5C
1486177291.83,25247,9.63,72692.5,-5.99,-20.39,-20.25,0,*5E
1486177293.07,25248,9.63,72694.0,-6.01,-20.39,-20.19,0,*5C
1486177294.32,25249,9.69,72696.5,-6.01,-20.49,-20.19,0,*5A
1486177295.56,25250,9.69,72698.0,-6.01,-20.49,-20.25,0,*5D
1486177296.79,25251,9.69,72696.0,-6.01,-20.49,-20.25,0,*5C
1486177298.05,25252,9.63,72694.3,-6.01,-20.49,-20.19,0,*50
1486177299.26,25253,9.69,72696.3,-6.01,-20.39,-20.25,0,*59
1486177300.49,25254,9.69,72696.3,-6.01,-20.49,-20.25,0,*59
1486177301.75,25255,9.69,72698.0,-6.01,-20.49,-20.19,0,*57
1486177302.98,25256,9.69,72694.0,-6.01,-20.39,-20.19,0,*53
1486177304.21,25257,9.69,72696.8,-6.01,-20.49,-20.25,0,*5A
1486177305.45,25258,9.69,72696.8,-6.01,-20.49,-20.25,0,*55
1486177306.7,25259,9.69,72694.3,-6.01,-20.49,-20.35,0,*55
1486177307.91,25260,9.69,72696.5,-6.05,-20.43,-20.29,0,*5C
1486177309.15,25261,9.69,72696.0,-6.05,-20.53,-20.29,0,*5C
1486177310.38,25262,9.63,72692.3,-6.05,-20.53,-20.25,0,*53
1486177311.62,25263,9.69,72698.8,-6.05,-20.53,-20.29,0,*5E
1486177312.88,25264,9.63,72692.5,-6.01,-20.49,-20.19,0,*55
1486177314.11,25265,9.63,72692.5,-6.05,-20.53,-20.25,0,*54
1486177315.33,25266,9.69,72694.5,-6.05,-20.43,-20.25,0,*56
1486177316.59,25267,9.69,72698.5,-6.01,-20.49,-20.19,0,*56
1486177317.82,25268,9.69,72696.3,-6.01,-20.49,-20.25,0,*56
1486177319.08,25269,9.69,72696.0,-6.01,-20.49,-20.19,0,*58
1486177320.33,25270,9.69,72698.0,-6.01,-20.49,-20.19,0,*50
1486177321.57,25271,9.69,72698.5,-6.01,-20.39,-20.19,0,*56
1486177322.82,25272,9.69,72696.3,-6.01,-20.49,-20.19,0,*52
1486177324.08,25273,9.69,72696.8,-6.01,-20.49,-20.19,0,*53
1486177325.31,25274,9.69,72698.0,-6.01,-20.49,-20.25,0,*5B
1486177326.57,25275,9.69,72696.8,-6.01,-20.49,-20.19,0,*55
1486177327.82,25276,9.69,72696.5,-6.05,-20.53,-20.15,0,*55
1486177329.05,25277,9.69,72698.0,-6.01,-20.49,-20.09,0,*56
1486177330.31,25278,9.69,72696.3,-6.01,-20.49,-20.19,0,*58
1486177331.54,25279,9.63,72692.3,-6.01,-20.49,-20.25,0,*56
1486177332.8,25280,9.69,72694.5,-6.01,-20.49,-20.19,0,*5F
1486177334.03,25281,9.69,72694.8,-6.01,-20.49,-20.25,0,*51
1486177335.27,25282,9.69,72696.5,-6.05,-20.53,-20.29,0,*51
1486177336.52,25283,9.63,72692.5,-6.01,-20.49,-20.19,0,*5C
1486177337.8,25284,9.63,72694.0,-5.99,-20.49,-20.19,0,*59
1486177339.01,25285,9.69,72694.0,-6.01,-20.39,-20.25,0,*52
1486177340.27,25286,9.69,72696.5,-6.01,-20.49,-20.19,0,*59
1486177341.51,25287,9.69,72698.5,-6.05,-20.53,-20.25,0,*58
1486177342.74,25288,9.63,72694.3,-6.05,-20.53,-20.25,0,*57
1486177344.0,25289,9.69,72696.0,-6.05,-20.53,-20.15,0,*55
1486177345.23,25290,9.63,72692.5,-6.05,-20.53,-20.29,0,*52
1486177346.47,25291,9.69,72696.0,-6.05,-20.53,-20.25,0,*5F
1486177347.71,25292,9.69,72694.0,-6.05,-20.53,-20.25,0,*5C
1486177348.94,25293,9.69,72694.8,-6.01,-20.39,-20.19,0,*5A
1486177350.19,25294,9.69,72694.3,-6.01,-20.49,-20.19,0,*5A
1486177351.45,25295,9.69,72694.0,-6.01,-20.49,-20.19,0,*5B
1486177352.71,25296,9.69,72694.3,-6.01,-20.49,-20.19,0,*58
1486177353.94,25297,9.69,72698.8,-6.05,-20.53,-20.29,0,*55
1486177355.17,25298,9.69,72696.0,-6.05,-20.53,-20.29,0,*5A
1486177356.41,25299,9.69,72694.5,-6.05,-20.53,-20.29,0,*5B
1486177357.66,25300,9.69,72692.3,-6.05,-20.53,-20.15,0,*55
1486177358.91,25301,9.63,72694.5,-6.05,-20.53,-20.15,0,*54
1486177360.15,25302,9.69,72694.3,-6.05,-20.43,-20.15,0,*56
1486177361.41,25303,9.63,72692.0,-6.07,-20.59,-20.19,0,*52
1486177362.65,25304,9.69,72694.3,-6.05,-20.43,-20.15,0,*50
1486177363.86,25305,9.69,72696.0,-6.05,-20.43,-20.25,0,*52
1486177365.1,25306,9.69,72696.3,-6.05,-20.43,-20.15,0,*52
1486177366.31,25307,9.69,72692.8,-6.05,-20.43,-20.25,0,*50
1486177367.55,25308,9.69,72694.8,-6.05,-20.43,-20.15,0,*5C
1486177368.78,25309,9.63,72692.0,-6.05,-20.53,-20.25,0,*5F
1486177370.04,25310,9.69,72698.0,-6.05,-20.53,-20.15,0,*54
1486177371.28,25311,9.69,72698.3,-6.07,-20.59,-20.29,0,*52
1486177372.49,25312,9.63,72692.0,-6.05,-20.43,-20.25,0,*54
1486177373.75,25313,9.63,72692.8,-6.05,-20.53,-20.15,0,*57
1486177375.0,25314,9.63,72692.8,-6.05,-20.53,-20.15,0,*50
1486177376.24,25315,9.63,72692.0,-6.05,-20.53,-20.09,0,*5C
1486177377.49,25316,9.69,72694.0,-6.05,-20.53,-20.15,0,*52
1486177378.77,25317,9.69,72694.5,-6.07,-20.49,-20.19,0,*56
1486177380.01,25318,9.63,72692.3,-6.05,-20.53,-20.09,0,*51
1486177381.26,25319,9.69,72694.3,-6.05,-20.53,-20.15,0,*5D
1486177382.53,25320,9.63,72692.0,-6.07,-20.59,-20.19,0,*53
1486177383.76,25321,9.69,72694.3,-6.05,-20.43,-20.15,0,*57
1486177384.98,25322,9.63,72692.3,-6.05,-20.43,-20.09,0,*59
1486177386.23,25323,9.69,72692.8,-6.05,-20.53,-20.15,0,*54
1486177387.48,25324,9.63,72692.3,-6.05,-20.53,-20.15,0,*53
1486177388.72,25325,9.63,72694.5,-6.05,-20.43,-20.15,0,*53
1486177390.0,25326,9.69,72694.3,-6.07,-20.49,-20.19,0,*54
1486177391.23,25327,9.69,72694.3,-6.05,-20.53,-20.09,0,*5D
1486177392.49,25328,9.69,72692.3,-6.05,-20.53,-20.15,0,*5F
1486177393.77,25329,9.69,72692.8,-6.07,-20.49,-20.15,0,*57
1486177395.0,25330,9.63,72692.0,-6.05,-20.43,-20.15,0,*57
1486177396.26,25331,9.69,72692.3,-6.07,-20.59,-20.15,0,*5F
1486177397.5,25332,9.63,72692.3,-6.05,-20.53,-20.09,0,*59
1486177398.78,25333,9.63,72692.8,-6.07,-20.49,-20.19,0,*50
1486177400.05,25334,9.69,72692.8,-6.07,-20.59,-20.19,0,*56
1486177401.29,25335,9.69,72692.3,-6.05,-20.59,-20.19,0,*55
1486177402.57,25336,9.69,72694.8,-6.07,-20.49,-20.19,0,*55
1486177403.83,25337,9.63,72694.5,-6.07,-20.59,-20.15,0,*59
1486177405.1,25338,9.63,72692.5,-6.07,-20.59,-20.19,0,*5A
1486177406.38,25339,9.69,72694.8,-6.07,-20.49,-20.15,0,*56
1486177407.62,25340,9.69,72692.5,-6.07,-20.59,-20.29,0,*56
1486177408.91,25341,9.69,72694.3,-6.07,-20.49,-20.19,0,*55
1486177410.19,25342,9.69,72692.5,-6.07,-20.49,-20.15,0,*5A
1486177411.47,25343,9.69,72692.3,-6.07,-20.49,-20.15,0,*5B
1486177412.75,25344,9.63,72694.5,-6.07,-20.49,-20.19,0,*50
1486177414.03,25345,9.63,72692.5,-6.07,-20.49,-20.15,0,*5D
1486177415.31,25346,9.69,72694.5,-6.07,-20.49,-20.15,0,*5E
1486177416.57,25347,9.63,72688.3,-6.07,-20.59,-20.15,0,*5E
1486177417.85,25348,9.69,72692.5,-6.07,-20.49,-20.15,0,*50
1486177419.11,25349,9.69,72694.8,-6.07,-20.59,-20.15,0,*50
1486177420.38,25350,9.69,72692.3,-6.07,-20.59,-20.19,0,*54
1486177421.65,25351,9.69,72694.5,-6.07,-20.59,-20.19,0,*55
1486177422.93,25352,9.69,72694.5,-6.07,-20.49,-20.15,0,*5B
1486177424.14,25353,9.63,72692.3,-6.05,-20.43,-20.05,0,*53
1486177425.39,25354,9.69,72692.0,-6.07,-20.35,-20.05,0,*57
1486177426.63,25355,9.63,72692.8,-6.07,-20.43,-20.05,0,*57
1486177427.91,25356,9.63,72692.5,-6.07,-20.49,-20.15,0,*5F
1486177429.17,25357,9.63,72694.5,-6.07,-20.43,-20.15,0,*54
1486177430.45,25358,9.63,72694.0,-6.07,-20.35,-20.15,0,*5A
1486177431.66,25359,9.63,72692.8,-6.05,-20.39,-20.05,0,*54
1486177432.85,25360,9.69,72694.3,-6.05,-20.29,-20.05,0,*5F
1486177434.11,25361,9.69,72692.0,-6.09,-20.49,-20.19,0,*59
1486177435.34,25362,9.63,72688.5,-6.09,-20.35,-19.99,0,*53
1486177436.55,25363,9.63,72690.8,-6.09,-20.43,-19.99,0,*53
1486177437.81,25364,9.69,72694.5,-6.07,-20.35,-20.05,0,*54
1486177439.06,25365,9.69,72694.5,-6.07,-20.35,-20.05,0,*55
1486177440.31,25366,9.63,72694.3,-6.07,-20.35,-19.99,0,*59
1486177441.54,25367,9.69,72692.3,-6.09,-20.35,-20.05,0,*59
1486177442.81,25368,9.69,72696.3,-6.07,-20.35,-20.15,0,*59
1486177444.05,25369,9.69,72692.0,-6.07,-20.43,-20.05,0,*58
1486177445.29,25370,9.63,72692.5,-6.07,-20.43,-20.05,0,*50
1486177446.5,25371,9.63,72692.5,-6.09,-20.43,-19.99,0,*50
1486177447.75,25372,9.69,72696.0,-6.07,-20.43,-20.05,0,*52
1486177449.0,25373,9.63,72692.0,-6.07,-20.35,-20.05,0,*52
1486177450.26,25374,9.63,72690.0,-6.07,-20.43,-20.15,0,*55
1486177451.52,25375,9.63,72692.8,-6.07,-20.43,-20.15,0,*54
1486177452.73,25376,9.63,72692.3,-6.09,-20.43,-20.05,0,*58
1486177453.95,25377,9.63,72694.0,-6.09,-20.43,-20.05,0,*59
1486177455.2,25378,9.69,72696.3,-6.07,-20.35,-20.05,0,*59
1486177456.47,25379,9.69,72694.3,-6.07,-20.35,-20.15,0,*59
1486177457.75,25380,9.63,72692.8,-6.07,-20.35,-20.15,0,*5F
1486177458.95,25381,9.63,72690.0,-6.05,-20.39,-19.99,0,*5E
1486177460.24,25382,9.69,72694.8,-6.11,-20.49,-20.19,0,*5D
1486177461.47,25383,9.63,72694.0,-6.09,-20.35,-20.05,0,*53
1486177462.69,25384,9.69,72694.8,-6.09,-20.35,-19.99,0,*5B
1486177463.94,25385,9.69,72692.3,-6.09,-20.35,-20.15,0,*54
1486177465.19,25386,9.63,72692.0,-6.09,-20.35,-20.15,0,*57
1486177466.45,25387,9.69,72694.8,-6.11,-20.39,-20.19,0,*5F
1486177467.69,25388,9.69,72692.0,-6.07,-20.43,-19.99,0,*58
1486177468.91,25389,9.69,72692.0,-6.07,-20.29,-19.99,0,*55
1486177470.11,25390,9.63,72690.8,-6.09,-20.29,-19.99,0,*53
1486177471.31,25391,9.69,72694.5,-6.09,-20.29,-19.99,0,*52
1486177472.51,25392,9.69,72692.5,-6.09,-20.29,-20.05,0,*5E
1486177473.74,25393,9.63,72692.3,-6.11,-20.25,-20.09,0,*56
1486177474.97,25394,9.69,72692.8,-6.09,-20.35,-20.05,0,*55
1486177476.2,25395,9.69,72692.5,-6.07,-20.29,-20.05,0,*57
1486177477.42,25396,9.63,72690.5,-6.09,-20.35,-20.05,0,*57
1486177478.66,25397,9.69,72694.8,-6.09,-20.43,-20.15,0,*56
1486177479.86,25398,9.63,72692.8,-6.09,-20.29,-19.99,0,*5B
1486177481.08,25399,9.69,72692.5,-6.09,-20.35,-20.05,0,*58
1486177482.31,25400,9.63,72692.0,-6.09,-20.19,-19.99,0,*5E
1486177483.51,25401,9.63,72690.5,-6.09,-20.29,-20.05,0,*53
1486177484.71,25402,9.69,72694.8,-6.09,-20.29,-20.05,0,*50
1486177485.94,25403,9.69,72692.8,-6.07,-20.29,-20.05,0,*5F
1486177487.16,25404,9.63,72692.0,-6.09,-20.35,-20.05,0,*5B
1486177488.42,25405,9.69,72692.5,-6.11,-20.35,-20.09,0,*5F
1486177489.66,25406,9.63,72692.8,-6.11,-20.25,-20.25,0,*53
1486177490.89,25407,9.69,72694.8,-6.09,-20.19,-20.05,0,*56
1486177492.12,25408,9.63,72694.3,-6.09,-20.19,-20.05,0,*59
1486177493.32,25409,9.63,72692.0,-6.09,-20.29,-20.05,0,*5B
1486177494.6,25410,9.63,72692.3,-6.11,-20.35,-20.19,0,*5A
1486177495.85,25411,9.69,72692.5,-6.11,-20.35,-20.09,0,*5A
1486177497.1,25412,9.63,72690.8,-6.11,-20.35,-20.09,0,*59
1486177498.33,25413,9.69,72694.5,-6.09,-20.19,-20.05,0,*53
1486177499.56,25414,9.63,72690.8,-6.09,-20.19,-20.05,0,*54
1486177500.82,25415,9.63,72690.8,-6.11,-20.35,-20.09,0,*5E
1486177502.07,25416,9.63,72694.5,-6.11,-20.35,-20.09,0,*5D
1486177503.31,25417,9.69,72694.8,-6.11,-20.25,-20.05,0,*51
1486177504.53,25418,9.69,72692.3,-6.09,-20.19,-19.99,0,*57
1486177505.76,25419,9.63,72692.5,-6.09,-20.19,-20.05,0,*59
1486177507.02,25420,9.63,72692.8,-6.11,-20.25,-20.15,0,*54
1486177508.25,25421,9.69,72698.3,-6.11,-20.25,-20.09,0,*58
1486177509.48,25422,9.63,72688.3,-6.09,-20.19,-20.05,0,*51
1486177510.71,25423,9.63,72692.8,-6.09,-20.19,-20.05,0,*50
1486177511.97,25424,9.69,72692.0,-6.11,-20.25,-20.19,0,*5C
1486177513.22,25425,9.69,72692.8,-6.11,-20.35,-20.09,0,*5D
1486177514.45,25426,9.63,72692.8,-6.09,-20.19,-20.05,0,*55
1486177515.68,25427,9.63,72694.0,-6.09,-20.19,-20.05,0,*54
1486177516.94,25428,9.63,72692.5,-6.11,-20.25,-20.19,0,*50
1486177518.19,25429,9.63,72690.8,-6.09,-20.19,-20.15,0,*5B
1486177519.47,25430,9.63,72692.0,-6.11,-20.35,-20.19,0,*58
1486177520.73,25431,9.63,72694.8,-6.11,-20.35,-20.25,0,*56
1486177522.01,25432,9.69,72694.8,-6.11,-20.35,-20.19,0,*5A
1486177523.25,25433,9.63,72692.5,-6.11,-20.25,-20.25,0,*55
1486177524.5,25434,9.63,72692.0,-6.11,-20.25,-20.19,0,*5D
1486177525.78,25435,9.63,72694.8,-6.11,-20.35,-20.19,0,*5D
1486177527.04,25436,9.63,72692.0,-6.11,-20.25,-20.19,0,*5F
1486177528.3,25437,9.63,72692.5,-6.11,-20.25,-20.19,0,*5E
1486177529.54,25438,9.69,72692.3,-6.13,-20.35,-20.25,0,*5D
1486177530.79,25439,9.69,72692.8,-6.13,-20.35,-20.19,0,*53
1486177532.03,25440,9.63,72692.8,-6.13,-20.25,-20.19,0,*5C
1486177533.25,25441,9.69,72692.5,-6.09,-20.05,-20.19,0,*54
1486177534.52,25442,9.63,72694.3,-6.11,-20.19,-20.25,0,*5C
1486177535.75,25443,9.63,72694.8,-6.13,-20.25,-20.19,0,*5F
1486177536.98,25444,9.69,72692.0,-6.13,-20.25,-20.19,0,*58
1486177538.2,25445,9.63,72692.5,-6.13,-20.25,-20.25,0,*56
1486177539.43,25446,9.69,72692.3,-6.13,-20.19,-20.25,0,*5A
1486177540.67,25447,9.69,72692.8,-6.13,-20.19,-20.25,0,*5B
1486177541.88,25448,9.63,72692.5,-6.13,-20.25,-20.25,0,*5B
1486177543.12,25449,9.63,72692.3,-6.13,-20.35,-20.25,0,*5B
1486177544.33,25450,9.69,72692.8,-6.13,-20.25,-20.25,0,*52
1486177545.54,25451,9.63,72690.8,-6.13,-20.25,-20.25,0,*53
1486177546.78,25452,9.63,72692.0,-6.13,-20.25,-20.19,0,*5F
1486177548.01,25453,9.63,72688.3,-6.13,-20.19,-20.25,0,*5E
1486177549.22,25454,9.69,72694.5,-6.13,-20.09,-20.25,0,*58
1486177550.48,25455,9.69,72692.5,-6.13,-20.19,-20.19,0,*57
1486177551.74,25456,9.63,72690.3,-6.13,-20.19,-20.19,0,*54
1486177552.97,25457,9.63,72692.0,-6.13,-20.19,-20.25,0,*5A
1486177554.21,25458,9.63,72692.3,-6.13,-20.19,-20.25,0,*55
1486177555.42,25459,9.63,72694.5,-6.13,-20.25,-20.25,0,*5B
1486177556.68,25460,9.63,72692.8,-6.13,-20.19,-20.19,0,*51
1486177557.91,25461,9.63,72688.8,-6.13,-20.09,-20.19,0,*51
1486177559.14,25462,9.63,72694.3,-6.13,-19.81,-19.75,0,*58
1486177560.35,25463,9.63,72688.0,-6.13,-19.75,-19.71,0,*56
1486177561.55,25464,9.63,72694.3,-6.13,-19.75,-19.71,0,*51
1486177562.76,25465,9.63,72692.5,-6.13,-19.75,-19.75,0,*54
1486177563.99,25466,9.63,72692.0,-6.13,-19.81,-19.75,0,*5C
1486177565.21,25467,9.63,72694.8,-6.13,-19.81,-19.75,0,*5D
1486177566.43,25468,9.63,72694.3,-6.13,-19.71,-19.71,0,*59
1486177567.65,25469,9.69,72692.3,-6.13,-19.81,-19.71,0,*57
1486177568.89,25470,9.69,72692.5,-6.13,-19.75,-19.81,0,*5B
1486177570.12,25471,9.63,72692.8,-6.13,-19.75,-19.81,0,*5A
1486177571.34,25472,9.63,72690.8,-6.13,-19.81,-19.75,0,*59
1486177572.58,25473,9.63,72692.3,-6.13,-19.91,-19.81,0,*52
1486177573.8,25474,9.63,72688.8,-6.13,-19.81,-19.75,0,*5F
1486177575.05,25475,9.63,72688.8,-6.13,-19.81,-19.81,0,*55
1486177576.3,25476,9.63,72690.5,-6.13,-19.81,-19.81,0,*56
1486177577.55,25477,9.63,72690.8,-6.13,-19.81,-19.81,0,*57
1486177578.78,25478,9.63,72688.8,-6.13,-19.75,-19.81,0,*53
1486177580.0,25479,9.69,72692.8,-6.13,-19.71,-19.75,0,*5D
1486177581.21,25480,9.63,72690.5,-6.13,-19.75,-19.75,0,*5F
1486177582.46,25481,9.63,72690.8,-6.13,-19.81,-19.81,0,*5E
1486177583.69,25482,9.63,72694.0,-6.13,-19.91,-19.81,0,*5C
1486177584.94,25483,9.63,72694.0,-6.13,-19.81,-19.81,0,*5C
1486177586.15,25484,9.63,72690.8,-6.13,-19.75,-19.75,0,*5B
1486177587.36,25485,9.63,72692.3,-6.13,-19.71,-19.75,0,*5E
1486177588.6,25486,9.63,72692.3,-6.13,-19.75,-19.81,0,*52
1486177589.83,25487,9.63,72694.8,-6.13,-19.71,-19.81,0,*57
1486177591.06,25488,9.63,72692.8,-6.13,-19.75,-19.81,0,*5C
1486177592.3,25489,9.63,72692.3,-6.13,-19.75,-19.81,0,*5D
1486177593.51,25490,9.63,72694.3,-6.13,-19.71,-19.75,0,*5A
1486177594.75,25491,9.63,72690.5,-6.13,-19.71,-19.81,0,*50
1486177596.0,25492,9.63,72690.0,-6.13,-19.81,-19.81,0,*5C
1486177597.25,25493,9.63,72692.3,-6.13,-19.81,-19.81,0,*5D
1486177598.5,25494,9.69,72692.8,-6.13,-19.81,-19.81,0,*5A
1486177599.75,25495,9.63,72692.5,-6.13,-19.81,-19.81,0,*5B
1486177601.0,25496,9.63,72690.5,-6.13,-19.81,-19.81,0,*58
1486177602.23,25497,9.63,72690.3,-6.13,-19.75,-19.81,0,*52
1486177603.44,25498,9.69,72694.3,-6.13,-19.75,-19.75,0,*56
1486177604.67,25499,9.63,72692.0,-6.13,-19.75,-19.81,0,*5C
1486177605.9,25500,9.63,72688.8,-6.13,-19.91,-19.81,0,*57
1486177607.13,25501,9.63,72692.5,-6.13,-19.81,-19.91,0,*56
1486177608.36,25502,9.63,72688.5,-6.13,-19.81,-19.91,0,*55
1486177609.58,25503,9.63,72692.3,-6.13,-19.81,-19.91,0,*54
1486177610.81,25504,9.69,72692.0,-6.13,-19.81,-19.91,0,*53
1486177612.05,25505,9.63,72688.8,-6.19,-19.91,-19.99,0,*51
1486177613.28,25506,9.63,72690.0,-6.17,-19.85,-19.95,0,*55
1486177614.49,25507,9.63,72688.0,-6.13,-19.75,-19.91,0,*5B
1486177615.72,25508,9.63,72690.3,-6.13,-19.75,-19.81,0,*55
1486177616.96,25509,9.63,72692.0,-6.13,-19.71,-19.81,0,*50
1486177618.2,25510,9.63,72688.8,-6.13,-19.71,-19.81,0,*58
1486177619.43,25511,9.63,72690.3,-6.13,-19.75,-19.81,0,*5D
1486177620.67,25512,9.63,72690.3,-6.13,-19.71,-19.81,0,*5A
1486177621.92,25513,9.63,72692.5,-6.13,-19.81,-19.81,0,*54
1486177623.17,25514,9.63,72690.5,-6.13,-19.81,-19.81,0,*53
1486177624.38,25515,9.69,72694.0,-6.13,-19.95,-19.95,0,*52
1486177625.6,25516,9.63,72690.5,-6.13,-19.91,-19.95,0,*55
1486177626.82,25517,9.69,72694.5,-6.13,-19.81,-19.91,0,*51
1486177628.05,25518,9.63,72688.3,-6.13,-19.81,-19.95,0,*5A
1486177629.26,25519,9.69,72694.5,-6.13,-19.91,-19.91,0,*5E
1486177630.48,25520,9.63,72690.3,-6.13,-19.91,-19.95,0,*50
1486177631.71,25521,9.63,72692.5,-6.13,-19.81,-19.95,0,*50
1486177632.92,25522,9.69,72692.3,-6.13,-19.91,-19.91,0,*56
1486177634.13,25523,9.63,72688.3,-6.13,-19.91,-19.91,0,*57
1486177635.36,25524,9.63,72692.5,-6.13,-19.81,-19.91,0,*51
1486177636.59,25525,9.63,72688.0,-6.13,-19.81,-19.95,0,*54
1486177637.81,25526,9.69,72694.0,-6.13,-19.81,-19.91,0,*53
1486177639.04,25527,9.69,72692.5,-6.13,-19.81,-19.91,0,*52
1486177640.27,25528,9.63,72690.3,-6.13,-19.81,-19.95,0,*59
1486177641.48,25529,9.63,72688.0,-6.13,-19.91,-20.05,0,*5A
1486177642.7,25530,9.63,72688.0,-6.13,-19.95,-20.05,0,*56
1486177643.93,25531,9.63,72688.8,-6.13,-19.81,-19.95,0,*51
1486177645.14,25532,9.63,72690.3,-6.13,-19.91,-19.91,0,*57
1486177646.35,25533,9.63,72692.0,-6.13,-19.91,-20.05,0,*51
1486177647.56,25534,9.63,72688.5,-6.13,-19.91,-19.95,0,*55
1486177648.79,25535,9.63,72688.8,-6.13,-19.81,-20.05,0,*56
1486177650.0,25536,9.63,72690.3,-6.13,-19.91,-20.05,0,*54
1486177651.21,25537,9.63,72688.5,-6.13,-19.91,-19.95,0,*56
1486177652.43,25538,9.63,72688.5,-6.13,-19.91,-19.95,0,*59
1486177653.64,25539,9.63,72688.0,-6.13,-19.91,-20.05,0,*5B
1486177654.85,25540,9.63,72690.8,-6.13,-19.91,-20.05,0,*55
1486177656.05,25541,9.63,72688.5,-6.13,-20.05,-20.05,0,*53
1486177657.26,25542,9.63,72688.5,-6.13,-20.05,-20.09,0,*5C
1486177658.48,25543,9.63,72688.5,-6.13,-19.95,-20.09,0,*5E
1486177659.71,25544,9.63,72690.0,-6.13,-20.05,-20.19,0,*5B
1486177660.95,25545,9.69,72690.3,-6.13,-19.95,-20.19,0,*59
1486177662.16,25546,9.63,72688.5,-6.13,-19.95,-20.05,0,*57
1486177663.37,25547,9.63,72688.3,-6.13,-19.91,-20.05,0,*52
1486177664.61,25548,9.63,72686.8,-6.13,-19.95,-20.19,0,*54
1486177665.83,25549,9.69,72690.8,-6.13,-19.95,-20.09,0,*54
1486177667.04,25550,9.63,72688.0,-6.13,-20.05,-20.09,0,*5F
1486177668.24,25551,9.63,72690.5,-6.13,-20.05,-20.25,0,*50
1486177669.45,25552,9.63,72690.0,-6.13,-20.05,-20.25,0,*53
1486177670.66,25553,9.63,72686.8,-6.13,-20.05,-20.25,0,*52
1486177671.88,25554,9.63,72688.0,-6.13,-19.95,-20.25,0,*56
1486177673.12,25555,9.63,72688.3,-6.13,-19.95,-20.19,0,*58
1486177674.35,25556,9.63,72690.3,-6.13,-20.05,-20.19,0,*58
1486177675.56,25557,9.63,72686.5,-6.13,-20.05,-20.25,0,*56
1486177676.77,25558,9.63,72686.8,-6.13,-20.09,-20.25,0,*55
1486177678.01,25559,9.63,72690.8,-6.13,-20.19,-20.25,0,*55
1486177679.21,25560,9.63,72684.5,-6.13,-20.09,-20.25,0,*5E
1486177680.43,25561,9.63,72690.0,-6.13,-20.09,-20.25,0,*5F
1486177681.65,25562,9.63,72688.3,-6.13,-20.09,-20.35,0,*5D
1486177682.88,25563,9.63,72688.3,-6.13,-20.09,-20.35,0,*5C
1486177684.12,25564,9.63,72690.3,-6.13,-20.19,-20.39,0,*56
1486177685.35,25565,9.63,72684.8,-6.13,-20.09,-20.35,0,*5A
1486177686.58,25566,9.63,72690.0,-6.13,-20.09,-20.35,0,*59
1486177687.8,25567,9.63,72688.5,-6.13,-20.25,-20.39,0,*5A
1486177689.04,25568,9.63,72686.5,-6.13,-20.19,-20.39,0,*5A
1486177690.27,25569,9.63,72686.3,-6.13,-20.19,-20.39,0,*5B
1486177691.53,25570,9.63,72690.0,-6.13,-20.19,-20.35,0,*5F
1486177692.77,25571,9.63,72690.3,-6.13,-20.19,-20.39,0,*52
1486177693.99,25572,9.63,72684.8,-6.13,-20.25,-20.39,0,*5E
1486177695.25,25573,9.63,72688.0,-6.13,-20.35,-20.49,0,*59
1486177696.5,25574,9.63,72688.3,-6.13,-20.35,-20.53,0,*55
1486177697.75,25575,9.63,72688.5,-6.13,-20.39,-20.53,0,*58
1486177699.01,25576,9.63,72690.0,-6.13,-20.35,-20.49,0,*5C
1486177700.25,25577,9.63,72686.8,-6.13,-20.25,-20.49,0,*5C
1486177701.5,25578,9.63,72690.5,-6.13,-20.35,-20.53,0,*59
1486177702.77,25579,9.63,72688.5,-6.13,-20.35,-20.49,0,*53
1486177704.0,25580,9.63,72686.8,-6.13,-20.25,-20.49,0,*54